Weather in Vechkideyevo

Russia / Republic of Mordovia     54°46′54″N   42°45′26″E
temp.,
°C
wind,
m/s
gust,
m/s
humid.,
%
clouds,
%
prec.,
mm/h
press.,
hPa
HPBL,
m
11 may, tue
tue1100:00+8nne61396100 0.0 1023344
03:00+8ne7149585 0.0 1023387
06:00+9ne6139467 0.0 1023357
09:00+13ne61184100 0.0 1024440
12:00+19ene5867100 0.0 1024871
15:00+20e586772 0.5 10241282
18:00+15ssw569098 1.9 1026328
21:00+12sse118896 1.9 102710
12 may, wed
wed1200:00+10wsw118966 0.0 102710
03:00+11n228849 0.0 102735
06:00+11ne259069 0.0 1026164
09:00+17e5877100 0.0 1025544
12:00+17ese61370100 0.3 1023556
15:00+17e71378100 0.3 10231053
18:00+15ese6138679 0.5 1023847
21:00+13ese410934 0.5 1023316
13 may, thu
thu1300:00+13e399396 0.0 1023283
03:00+13e379335 0.0 1022186
06:00+14e4109060 0.0 1022313
09:00+17e61374100 0.0 1020628
12:00+18se81172100 0.3 10191006
15:00+18se6107928 0.6 1019979
18:00+18sse378575 2.4 1018331
21:00+15s229394 2.4 101817
14 may, fri
fri1400:00+13ssw11941 0.3 101911
03:00+12e119538 0.3 101911
06:00+14e2294100 0.0 102080
09:00+18ese2383100 0.0 1019418
12:00+23sse356455 0.0 10191138
15:00+25sse45554 0.0 10181578
18:00+22ese377238 0.0 1017209
21:00+18se410915 0.0 1016190
15 may, sat
sat1500:00+16se399092 0.0 1016166
03:00+15se498814 0.0 1015149
06:00+15se3108020 0.0 1015248
09:00+21sse61458100 0.0 1014786
12:00+24s7155097 0.0 10131383
15:00+25s7125488 0.0 10131402
18:00+22s612644 0.0 1012498
21:00+16ssw228697 0.0 101212